User: anonymous   Login
Location: ????????
(55.5667°N, 37.5833°E)
Time: 14:53:43
(UTC+00:00)
Language:

BREEZE-M DEB (TANK) - Orbit

View from above orbital plane
View from above orbital plane
View from above satellite
View from above satellite

Ground track
Ground track

The orbit is defined by the following mean orbital elements,

1 35495U          26159.85245975 +.00000000 +00000-0 +10471-2 0 00002
2 35495  49.6182  25.8770 4886246 104.8728 312.4300  5.80510624    09
Epoch (UTC): 08 June 2026 20:27:32
Eccentricity: 0.4886246
inclination: 49.6182°
perigee height: 309 km
apogee height: 13090 km
right ascension of ascending node: 25.8770°
argument of perigee: 104.8728°
revolutions per day: 5.80510624
mean anomaly at epoch: 312.4300°

The dashed part of the orbit path shows where the satellite is in the earth's shadow,  

DLR